Stevens Pass
Stevens Pass Ski Area - Brooks Chair
Latest observation 09/03 18:00 PDT
| Time (PDT) | Temp °F 4800' | RH % 4800' | Pcp1 in 4800' | PcpSum in 4800' | 24Sno in 4800' | SnoHt in 4800' |
|---|---|---|---|---|---|---|
| 09/03 18:00 | 43 | 92 | 0.04 | 0.10 | 100.8 | -7999.0 |
| 09/03 17:00 | 44 | 89 | 0.00 | 0.06 | 103.1 | -7999.0 |
| 09/03 16:00 | 46 | 83 | 0.00 | 0.06 | 102.1 | -7999.0 |
| 09/03 15:00 | 47 | 75 | 0.00 | 0.06 | 97.4 | -7999.0 |
| 09/03 14:00 | 46 | 77 | 0.00 | 0.06 | 101.5 | -7999.0 |
| 09/03 13:00 | 48 | 69 | 0.00 | 0.06 | 111.4 | -7999.0 |
| 09/03 12:00 | 51 | 63 | 0.00 | 0.06 | 111.7 | -7999.0 |
| 09/03 11:00 | 47 | 72 | 0.00 | 0.06 | 108.5 | -7999.0 |
| 09/03 10:00 | 43 | 78 | 0.00 | 0.06 | 100.9 | -7999.0 |
| 09/03 09:00 | 42 | 83 | 0.00 | 0.06 | 100.5 | -7999.0 |
| 09/03 08:00 | 41 | 83 | 0.00 | 0.06 | 97.2 | -7999.0 |
| 09/03 07:00 | 37 | 91 | 0.00 | 0.06 | 143.2 | -7999.0 |
| 09/03 06:00 | 39 | 80 | 0.00 | 0.06 | 104.9 | -7999.0 |
| 09/03 05:00 | 39 | 88 | 0.00 | 0.06 | 128.9 | -7999.0 |
| 09/03 04:00 | 39 | 91 | 0.00 | 0.06 | 128.2 | -7999.0 |
| 09/03 03:00 | 38 | 87 | 0.00 | 0.06 | 134.3 | -7999.0 |
| 09/03 02:00 | 39 | 86 | 0.00 | 0.06 | 119.0 | -7999.0 |
| 09/03 01:00 | 38 | 90 | 0.00 | 0.06 | 149.1 | -7999.0 |
| 09/03 00:00 | 40 | 91 | 0.01 | 0.06 | 141.2 | -7999.0 |
| 09/02 23:00 | 40 | 90 | 0.00 | 0.05 | 135.9 | -7999.0 |
| 09/02 22:00 | 41 | 90 | 0.01 | 0.05 | 145.5 | -7999.0 |
| 09/02 21:00 | 42 | 95 | 0.04 | 0.04 | 147.4 | -7999.0 |
| 09/02 20:00 | 44 | 89 | 0.00 | 0.00 | 130.1 | -7999.0 |
| 09/02 19:00 | 44 | 88 | 0.00 | 0.00 | 126.0 | -7999.0 |

